Weather History for KRBO - January, 2013

Change the Weather History Date:

Tuesday, January 22, 2013

  Actual Average (KCRP) Record (KCRP)
Temperature  
Mean Temperature 61 °F 57 °F  
Max Temperature 76 °F 67 °F 89 °F (1972)
Min Temperature 46 °F 47 °F 20 °F (1930)
Degree Days  
Heating Degree Days 4 9  
Month to date heating degree days 198  
Since 1 July heating degree days 549  
Cooling Degree Days 0 1  
Month to date cooling degree days 22  
Year to date cooling degree days 22  
Growing Degree Days 11 (Base 50)    
Moisture  
Dew Point 52 °F    
Average Humidity 73    
Maximum Humidity 95    
Minimum Humidity 36    
Precipitation  
Precipitation 0.00 in 0.06 in 1.36 in (1975)
Month to date precipitation 1.10  
Year to date precipitation 1.10  
Snow  
Snow 0.00 in - - ()
Month to date snowfall  
Since 1 July snowfall  
Snow Depth -    
Sea Level Pressure  
Sea Level Pressure 30.24 in    
Wind  
Wind Speed 6 mph (East)    
Max Wind Speed 16 mph    
Max Gust Speed 24 mph    
Visibility 9 miles    
Events      
T = Trace of Precipitation, MM = Missing Value Source: NWS Daily Summary

Daily Weather History Graph

Daily Weather History Graph

Search for Another Location

Airport or City:

Trip Planner

Search our weather history database for the weather conditions in past years. The results will help you decide how hot, cold, wet, or windy it might be!

Date:

Astronomy

Jan. 22, 2013 Rise Set
Actual Time 7:21 AM CST 6:03 PM CST
Civil Twilight 6:56 AM CST 6:28 PM CST
Nautical Twilight 6:28 AM CST 6:57 PM CST
Astronomical Twilight 6:00 AM CST 7:25 PM CST
Moon 2:31 PM CST (1/22) 3:41 AM CST (1/22)
Length of Visible Light 11h 32m
Length of Day
10h 42m
Waxing Gibbous, 83% of the Moon is Illuminated
Jan 22
Waxing Gibbous
Jan 26
Full
Feb 3
Last Quarter
Feb 10
New
Feb 17
First Quarter

Hourly Weather History & Observations

Time (CST) Temp. Dew Point Humidity Pressure Visibility Wind Dir Wind Speed Gust Speed Precip Events Conditions
12:15 AM 54.1 °F 52.3 °F 94% 30.20 in 7.0 mi ESE 5.8 mph - N/A   Clear
12:35 AM 53.6 °F 51.8 °F 94% 30.20 in 5.0 mi ESE 4.6 mph - N/A   Clear
1:15 AM 53.6 °F 52.3 °F 95% 30.19 in 4.0 mi ESE 4.6 mph - N/A   Clear
1:35 AM 53.6 °F 52.2 °F 95% 30.18 in 7.0 mi ESE 6.9 mph - N/A   Clear
1:55 AM 52.3 °F 50.5 °F 94% 30.18 in 10.0 mi East 4.6 mph - N/A   Clear
2:15 AM 53.4 °F 51.8 °F 94% 30.18 in 7.0 mi East 4.6 mph - N/A   Clear
2:35 AM 54.3 °F 52.5 °F 94% 30.19 in 7.0 mi East 4.6 mph - N/A   Clear
2:55 AM 53.8 °F 52.2 °F 94% 30.19 in 10.0 mi East 4.6 mph - N/A   Clear
3:15 AM 52.0 °F 49.8 °F 92% 30.19 in 10.0 mi East 3.5 mph - N/A   Clear
3:35 AM 53.2 °F 51.3 °F 93% 30.20 in 10.0 mi Calm Calm - N/A   Clear
3:55 AM 50.9 °F 48.4 °F 91% 30.20 in 7.0 mi Calm Calm - N/A   Clear
4:15 AM 49.1 °F 47.1 °F 93% 30.20 in 5.0 mi North 4.6 mph - N/A   Clear
4:35 AM 48.2 °F 46.4 °F 93% 30.21 in 5.0 mi North 3.5 mph - N/A   Clear
4:55 AM 47.8 °F 46.0 °F 93% 30.22 in 7.0 mi North 4.6 mph - N/A   Clear
5:15 AM 47.3 °F 45.1 °F 92% 30.22 in 7.0 mi North 4.6 mph - N/A   Clear
5:35 AM 47.7 °F 45.5 °F 92% 30.22 in 7.0 mi Calm Calm - N/A   Clear
5:55 AM 47.5 °F 45.5 °F 93% 30.23 in 7.0 mi North 4.6 mph - N/A   Clear
6:15 AM 47.3 °F 45.0 °F 92% 30.23 in 7.0 mi Calm Calm - N/A   Clear
6:35 AM 46.8 °F 44.4 °F 92% 30.24 in 7.0 mi NNE 3.5 mph - N/A   Clear
6:55 AM 46.6 °F 44.2 °F 92% 30.25 in 7.0 mi NNE 3.5 mph - N/A   Clear
7:15 AM 48.9 °F 46.9 °F 93% 30.25 in 5.0 mi NE 3.5 mph - N/A   Clear
7:35 AM 49.5 °F 47.7 °F 94% 30.26 in 5.0 mi NNE 3.5 mph - N/A   Clear
7:55 AM 50.9 °F 49.1 °F 94% 30.26 in 5.0 mi NE 3.5 mph - N/A   Clear
8:15 AM 53.2 °F 50.7 °F 91% 30.27 in 7.0 mi Calm Calm - N/A   Clear
8:35 AM 58.3 °F 53.6 °F 84% 30.27 in 10.0 mi ENE 3.5 mph - N/A   Clear
8:55 AM 60.6 °F 54.3 °F 80% 30.28 in 10.0 mi ENE 4.6 mph - N/A   Clear
9:15 AM 63.7 °F 55.4 °F 74% 30.29 in 10.0 mi ENE 5.8 mph - N/A   Clear
9:35 AM 64.6 °F 55.4 °F 72% 30.30 in 10.0 mi East 6.9 mph - N/A   Clear
9:55 AM 67.1 °F 55.6 °F 66% 30.30 in 10.0 mi East 5.8 mph - N/A   Clear
10:15 AM 69.4 °F 55.4 °F 61% 30.31 in 10.0 mi East 8.1 mph - N/A   Clear
10:35 AM 71.4 °F 55.0 °F 56% 30.30 in 10.0 mi ESE 9.2 mph - N/A   Clear
10:55 AM 71.6 °F 54.3 °F 54% 30.30 in 10.0 mi ESE 10.4 mph 16.1 mph N/A   Clear
11:15 AM 72.7 °F 53.1 °F 50% 30.29 in 10.0 mi SE 10.4 mph 17.3 mph N/A   Clear
11:55 AM 74.5 °F 51.4 °F 44% 30.28 in 10.0 mi ESE 11.5 mph - N/A   Clear
12:15 PM 75.0 °F 50.7 °F 42% 30.27 in 10.0 mi ESE 16.1 mph - N/A   Clear
12:35 PM 75.2 °F 49.5 °F 40% 30.26 in 10.0 mi ESE 15.0 mph 20.7 mph N/A   Clear
12:55 PM 74.8 °F 51.8 °F 44% 30.25 in 10.0 mi East 13.8 mph 24.2 mph N/A   Clear
1:15 PM 73.8 °F 50.4 °F 44% 30.24 in 10.0 mi SE 15.0 mph - N/A   Clear
1:35 PM 75.4 °F 47.5 °F 37% 30.23 in 10.0 mi ESE 13.8 mph - N/A   Clear
1:55 PM 75.7 °F 46.9 °F 36% 30.23 in 10.0 mi ESE 13.8 mph 20.7 mph N/A   Clear
2:15 PM 75.9 °F 46.9 °F 36% 30.22 in 10.0 mi East 13.8 mph 19.6 mph N/A   Clear
2:35 PM 76.1 °F 48.4 °F 38% 30.22 in 10.0 mi SE 16.1 mph 19.6 mph N/A   Clear
2:55 PM 74.7 °F 48.2 °F 39% 30.22 in 10.0 mi ESE 12.7 mph 16.1 mph N/A   Clear
3:15 PM 75.2 °F 47.7 °F 38% 30.21 in 10.0 mi ESE 13.8 mph - N/A   Clear
3:35 PM 74.1 °F 48.7 °F 41% 30.20 in 10.0 mi ESE 15.0 mph - N/A   Clear
3:55 PM 73.4 °F 48.9 °F 42% 30.21 in 10.0 mi ESE 13.8 mph - N/A   Clear
4:15 PM 72.9 °F 50.2 °F 45% 30.22 in 10.0 mi ESE 15.0 mph - N/A   Clear
4:35 PM 72.1 °F 50.5 °F 46% 30.22 in 10.0 mi ESE 16.1 mph - N/A   Clear
4:55 PM 72.0 °F 50.7 °F 47% 30.22 in 10.0 mi ESE 13.8 mph - N/A   Clear
5:15 PM 70.7 °F 51.6 °F 51% 30.22 in 10.0 mi ESE 15.0 mph - N/A   Clear
5:35 PM 70.0 °F 52.3 °F 53% 30.22 in 10.0 mi ESE 10.4 mph - N/A   Clear
5:55 PM 68.5 °F 53.6 °F 59% 30.23 in 10.0 mi East 10.4 mph - N/A   Clear
6:15 PM 67.5 °F 53.8 °F 61% 30.23 in 10.0 mi East 8.1 mph - N/A   Clear
6:35 PM 66.2 °F 54.1 °F 65% 30.23 in 10.0 mi East 8.1 mph - N/A   Clear
6:55 PM 65.1 °F 55.2 °F 70% 30.23 in 10.0 mi East 8.1 mph - N/A   Clear
7:15 PM 64.6 °F 57.4 °F 77% 30.24 in 10.0 mi East 8.1 mph - N/A   Clear
7:35 PM 63.7 °F 57.0 °F 79% 30.24 in 10.0 mi East 6.9 mph - N/A   Clear
7:55 PM 62.6 °F 56.8 °F 81% 30.25 in 10.0 mi East 6.9 mph - N/A   Clear
8:15 PM 62.1 °F 57.2 °F 84% 30.25 in 10.0 mi East 6.9 mph - N/A   Clear
8:35 PM 61.2 °F 56.3 °F 84% 30.26 in 10.0 mi East 5.8 mph - N/A   Clear
8:55 PM 60.8 °F 56.3 °F 85% 30.26 in 10.0 mi East 5.8 mph - N/A   Clear
9:15 PM 60.3 °F 55.8 °F 85% 30.27 in 10.0 mi East 5.8 mph - N/A   Clear
9:35 PM 59.4 °F 55.6 °F 87% 30.27 in 10.0 mi East 5.8 mph - N/A   Clear
9:55 PM 59.7 °F 55.8 °F 87% 30.27 in 10.0 mi East 5.8 mph - N/A   Clear
10:15 PM 59.2 °F 56.1 °F 90% 30.27 in 10.0 mi ESE 6.9 mph - N/A   Clear
10:35 PM 59.7 °F 56.5 °F 89% 30.27 in 10.0 mi ESE 5.8 mph - N/A   Clear
10:55 PM 59.0 °F 55.9 °F 90% 30.27 in 10.0 mi East 4.6 mph - N/A   Clear
11:15 PM 58.5 °F 55.9 °F 91% 30.27 in 7.0 mi East 5.8 mph - N/A   Clear
11:35 PM 58.5 °F 55.9 °F 91% 30.27 in 10.0 mi East 5.8 mph - N/A   Clear
11:55 PM 59.0 °F 56.3 °F 91% 30.27 in 10.0 mi East 4.6 mph - N/A   Clear